Tracking 35331 objects as of 15-Sep-2026
HD Live streaming from Space Station
objects crossing your sky now

NOAA 16 DEB

Track NOAA 16 DEB now!
10-day predictions


NORAD ID: 41349
Int'l Code: 2000-055HS
Launch date: September 21, 2000
Source: United States (US)
Launch site: AIR FORCE WESTERN TEST RANGE (AFWTR)

Note: This is SATELLITE DEBRIS
Your satellite tracking list
Your tracking list is empty




NASA's NSSDC Master Catalog

Two Line Element Set (TLE):
1 41349U 00055HS  26257.57074986  .00004115  00000-0  97204-3 0  9995
2 41349  98.9615 115.3686 0026451 186.9408 173.1424 14.54558657556441
Source of the keplerian elements: AFSPC